This is the latest recevied weather packets stored in our database for station/object JS1SZZ-13. If no packets are shown the sender has not sent any weather packets the latest 1 day(s).
| Time | Temp. | Humidity | Pressure | Rain* | Wind** | Luminosity | Snow |
|---|---|---|---|---|---|---|---|
| 1777989641 | 6.11° C | 83% | 1020.7 hPa | 0 mm | 0 m/s | - | - |
| 1777988743 | 6.67° C | 82% | 1020.7 hPa | 0 mm | 0 m/s | - | - |
| 1777987841 | 6.67° C | 81% | 1020.6 hPa | 0 mm | 0 m/s | - | - |
| 1777986942 | 6.67° C | 80% | 1020.6 hPa | 0 mm | 0 m/s | - | - |
| 1777986299 | 7.22° C | 79% | 1020.5 hPa | 0 mm | 0 m/s | - | - |
| 1777985400 | 7.22° C | 78% | 1020.5 hPa | 0 mm | 0 m/s | - | - |
| 1777984499 | 7.78° C | 75% | 1020.3 hPa | 0 mm | 0 m/s | - | - |
| 1777983601 | 8.33° C | 75% | 1020.1 hPa | 0 mm | 0 m/s | - | - |
| 1777982700 | 8.33° C | 72% | 1019.9 hPa | 0 mm | 0 m/s | - | - |
| 1777981800 | 8.89° C | 70% | 1019.6 hPa | 0 mm | 0 m/s | - | - |
| 1777980900 | 9.44° C | 69% | 1019.5 hPa | 0 mm | 0 m/s | - | - |
| 1777979999 | 9.44° C | 67% | 1019.3 hPa | 0 mm | 0 m/s | - | - |
| 1777979100 | 10° C | 67% | 1018.8 hPa | 0 mm | 0 m/s | - | - |
| 1777978200 | 10.56° C | 61% | 1018.9 hPa | 0 mm | 0 m/s | - | - |
| 1777977299 | 10.56° C | 59% | 1018.8 hPa | 0 mm | 0 m/s | - | - |
| 1777976400 | 11.67° C | 57% | 1018.4 hPa | 0 mm | 0 m/s | - | - |
| 1777975500 | 12.22° C | 52% | 1018.3 hPa | 0 mm | 0 m/s | - | - |
| 1777974600 | 13.89° C | 50% | 1017.9 hPa | 0 mm | 0 m/s | - | - |
| 1777973700 | 15° C | 45% | 1017.9 hPa | 0 mm | 0 m/s | - | - |
| 1777972799 | 16.11° C | 37% | 1017.4 hPa | 0 mm | 0 m/s | - | - |
| 1777971900 | 17.22° C | 32% | 1017.5 hPa | 0 mm | 0 m/s | - | - |
| 1777971000 | 18.33° C | 26% | 1017.2 hPa | 0 mm | 0 m/s | - | - |
| 1777970100 | 18.89° C | 29% | 1017 hPa | 0 mm | 0 m/s | - | - |
| 1777969199 | 18.89° C | 27% | 1016.8 hPa | 0 mm | 0 m/s | - | - |
| 1777968300 | 20° C | 22% | 1016.6 hPa | 0 mm | 0 m/s | - | - |
* Rain latest hour (hover to see other rain measurements)
** Current wind speed in m/s (hover to see current wind gust speed)